Weather History for Sand Island, Henderson Field, HI

Change the Weather History Date:

Thursday, December 26, 2013

  Actual Average Record
Temperature  
Mean Temperature 70 °F -  
Max Temperature 75 °F - - ()
Min Temperature 64 °F - - ()
Cooling Degree Days 4    
Growing Degree Days 20 (Base 50)    
Moisture  
Dew Point 66 °F    
Average Humidity 91    
Maximum Humidity 100    
Minimum Humidity 57    
Precipitation  
Precipitation 0.10 in - - ()
Sea Level Pressure  
Sea Level Pressure 30.26 in    
Wind  
Wind Speed 15 mph (WNW)    
Max Wind Speed 21 mph    
Max Gust Speed 38 mph    
Visibility 5 miles    
Events Rain    
T = Trace of Precipitation, MM = Missing Value Source: NWS Daily Summary

Daily Weather History Graph

Daily Weather History Graph

Search for Another Location

Airport:

Trip Planner

Search our weather history database for the weather conditions in past years. The results will help you decide how hot, cold, wet, or windy it might be!

Date:

Astronomy

Dec. 26, 2013 Rise Set
Actual Time 6:39 PM GMT 5:01 AM GMT
Civil Twilight 6:13 PM GMT 5:27 AM GMT
Nautical Twilight 5:44 PM GMT 5:56 AM GMT
Astronomical Twilight 5:15 PM GMT 6:25 AM GMT
Moon 12:43 PM GMT (12/26) No Moon Set
Length of Visible Light 11h 13m
Length of Day
10h 21m
Last Quarter, 41% of the Moon is Illuminated
Dec 26
Last Quarter
Jan 1
New
Jan 8
First Quarter
Jan 16
Full
Jan 24
Last Quarter

Hourly Weather History & Observations

Time (GMT) Temp. Dew Point Humidity Pressure Visibility Wind Dir Wind Speed Gust Speed Precip Events Conditions
12:14 AM 75.2 °F 73.4 °F 94% 29.96 in 1.8 mi SW 19.6 mph 25.3 mph N/A   Mostly Cloudy
12:20 AM 75.2 °F 73.4 °F 94% 29.95 in 2.0 mi SSW 20.7 mph 25.3 mph N/A   Mostly Cloudy
12:28 AM 75.2 °F 73.4 °F 94% 29.95 in 5.0 mi SW 18.4 mph - N/A   Mostly Cloudy
12:56 AM 75.9 °F 72.0 °F 87% 30.85 in 6.0 mi SW 20.7 mph - N/A   Mostly Cloudy
1:17 AM 75.2 °F 71.6 °F 89% 29.93 in 6.0 mi SW 20.7 mph 26.5 mph N/A   Scattered Clouds
1:39 AM 75.2 °F 71.6 °F 89% 29.93 in 5.0 mi SW 19.6 mph - N/A   Mostly Cloudy
1:56 AM 75.9 °F 72.0 °F 87% 30.83 in 6.0 mi SW 20.7 mph 27.6 mph N/A   Mostly Cloudy
2:16 AM 75.2 °F 71.6 °F 89% 29.92 in 5.0 mi SW 19.6 mph - N/A   Scattered Clouds
2:56 AM 74.8 °F 72.0 °F 91% 30.83 in 5.0 mi SW 17.3 mph - N/A   Partly Cloudy
3:56 AM 74.8 °F 72.0 °F 91% 30.84 in 5.0 mi SW 18.4 mph - N/A   Mostly Cloudy
4:22 AM 73.4 °F 71.6 °F 94% 29.94 in 5.0 mi SW 18.4 mph - N/A   Partly Cloudy
4:56 AM 73.9 °F 72.9 °F 96% 30.85 in 4.0 mi SW 16.1 mph - N/A   Overcast
5:56 AM 73.4 °F 73.4 °F 100% 29.95 in 6.0 mi SW 18.4 mph - N/A   Scattered Clouds
6:56 AM 73.9 °F 73.9 °F 100% 30.88 in 6.0 mi SW 17.3 mph - N/A   Partly Cloudy
7:26 AM 69.8 °F 69.8 °F 100% 29.99 in 2.5 mi NNW 15.0 mph 38.0 mph N/A   Mostly Cloudy
7:30 AM 69.8 °F 69.8 °F 100% 29.99 in 1.8 mi NNW 17.3 mph 24.2 mph 0.01 in   Mostly Cloudy
7:36 AM 69.8 °F 69.8 °F 100% 30.00 in 1.0 mi NNW 11.5 mph 24.2 mph 0.06 in   Mostly Cloudy
7:42 AM 69.8 °F 69.8 °F 100% 30.00 in 1.5 mi NW 11.5 mph 19.6 mph 0.06 in   Mostly Cloudy
7:46 AM 69.8 °F 69.8 °F 100% 30.00 in 3.0 mi NW 12.7 mph - 0.06 in   Overcast
7:56 AM 68.9 °F 68.9 °F 100% 30.91 in 5.0 mi NW 11.5 mph 18.4 mph 0.06 in Rain Light Rain
8:07 AM 69.8 °F 69.8 °F 100% 30.00 in 1.8 mi NNW 13.8 mph 20.7 mph 0.00 in Rain Light Rain
8:32 AM 68.0 °F 68.0 °F 100% 30.00 in 2.5 mi NW 13.8 mph - 0.00 in Rain Light Rain
8:37 AM 68.0 °F 68.0 °F 100% 30.00 in 4.0 mi NW 12.7 mph - 0.00 in Rain Light Rain
8:56 AM 68.0 °F 68.0 °F 100% 30.00 in 10.0 mi WNW 8.1 mph - N/A   Mostly Cloudy
9:33 AM 69.8 °F 66.2 °F 88% 30.00 in 10.0 mi WNW 10.4 mph 19.6 mph N/A   Mostly Cloudy
9:56 AM 70.0 °F 65.8 °F 87% 30.90 in 10.0 mi WNW 10.4 mph 19.6 mph N/A   Overcast
10:56 AM 70.0 °F 65.8 °F 87% 30.90 in 9.0 mi WNW 10.4 mph 16.1 mph N/A   Overcast
11:03 AM 69.8 °F 66.2 °F 88% 29.99 in 10.0 mi NW 12.7 mph 18.4 mph N/A   Overcast
11:31 AM 66.2 °F 66.2 °F 100% 29.99 in 7.0 mi NW 12.7 mph 18.4 mph N/A   Overcast
11:49 AM 66.2 °F 64.4 °F 94% 29.99 in 9.0 mi WNW 10.4 mph 19.6 mph N/A   Overcast
11:56 AM 66.2 °F 64.4 °F 94% 29.98 in 9.0 mi WNW 9.2 mph 17.3 mph N/A   Overcast
12:10 PM 66.2 °F 64.4 °F 94% 29.98 in 10.0 mi WNW 8.1 mph - N/A   Overcast
12:56 PM 68.9 °F 63.9 °F 84% 30.88 in 10.0 mi West 10.4 mph - N/A   Overcast
1:56 PM 68.9 °F 63.0 °F 81% 30.88 in 10.0 mi WNW 9.2 mph - N/A   Mostly Cloudy
2:48 PM 69.8 °F 64.4 °F 83% 29.98 in 7.0 mi WNW 12.7 mph 18.4 mph N/A   Mostly Cloudy
2:56 PM 66.2 °F 64.4 °F 94% 29.98 in 1.8 mi NW 10.4 mph 18.4 mph N/A   Mostly Cloudy
3:08 PM 66.2 °F 64.4 °F 94% 29.98 in 1.0 mi NW 12.7 mph 19.6 mph 0.01 in   Overcast
3:17 PM 64.4 °F 64.4 °F 100% 29.98 in 1.2 mi NW 12.7 mph 21.9 mph 0.02 in   Overcast
3:28 PM 64.4 °F 64.4 °F 100% 29.98 in 1.2 mi NW 11.5 mph 18.4 mph 0.02 in   Overcast
3:31 PM 64.4 °F 64.4 °F 100% 29.98 in 1.5 mi NW 10.4 mph - 0.02 in   Overcast
3:39 PM 64.4 °F 64.4 °F 100% 29.98 in 1.8 mi NW 8.1 mph 16.1 mph 0.02 in   Overcast
3:56 PM 64.9 °F 64.9 °F 100% 30.89 in 1.8 mi NW 12.7 mph 18.4 mph 0.03 in   Overcast
4:01 PM 64.4 °F 64.4 °F 100% 29.98 in 3.0 mi NW 13.8 mph 19.6 mph N/A   Overcast
4:11 PM 64.4 °F 64.4 °F 100% 29.98 in 9.0 mi NNW 10.4 mph 18.4 mph N/A   Overcast
4:25 PM 64.4 °F 64.4 °F 100% 29.99 in 10.0 mi NW 9.2 mph 18.4 mph N/A   Overcast
4:56 PM 65.8 °F 63.9 °F 93% 30.91 in 5.0 mi NW 9.2 mph - N/A   Mostly Cloudy
5:25 PM 66.2 °F 64.4 °F 94% 30.01 in 2.5 mi NW 11.5 mph 16.1 mph 0.01 in   Mostly Cloudy
5:30 PM 66.2 °F 62.6 °F 88% 30.01 in 3.0 mi NW 11.5 mph 18.4 mph 0.01 in   Mostly Cloudy
5:41 PM 66.2 °F 62.6 °F 88% 30.02 in 2.5 mi NNW 13.8 mph 19.6 mph 0.01 in Rain Light Rain
5:48 PM 66.2 °F 62.6 °F 88% 30.02 in 3.0 mi NNW 9.2 mph 18.4 mph 0.01 in Rain Light Rain
5:56 PM 66.2 °F 62.6 °F 88% 30.02 in 6.0 mi NNW 12.7 mph 19.6 mph N/A Rain Light Rain
6:02 PM 64.4 °F 62.6 °F 94% 30.02 in 2.5 mi NNW 12.7 mph 19.6 mph 0.00 in Rain Light Rain
6:11 PM 64.4 °F 62.6 °F 94% 30.02 in 1.8 mi North 11.5 mph 17.3 mph 0.00 in Rain Light Rain
6:15 PM 64.4 °F 62.6 °F 94% 30.03 in 3.0 mi NNW 12.7 mph - 0.00 in Rain Light Rain
6:39 PM 66.2 °F 60.8 °F 83% 30.04 in 8.0 mi NNW 11.5 mph 17.3 mph 0.00 in   Mostly Cloudy
6:56 PM 66.9 °F 59.9 °F 78% 30.97 in 4.0 mi NNW 11.5 mph - 0.00 in Rain Light Rain
7:56 PM 66.9 °F 56.8 °F 70% 31.00 in 8.0 mi NW 10.4 mph 18.4 mph 0.00 in   Mostly Cloudy
8:56 PM 68.9 °F 56.8 °F 65% 31.01 in 7.0 mi NNW 12.7 mph 16.1 mph N/A   Partly Cloudy
9:56 PM 70.0 °F 54.9 °F 59% 31.01 in 9.0 mi NW 10.4 mph - N/A   Partly Cloudy
10:56 PM 70.9 °F 54.9 °F 57% 31.01 in 9.0 mi NW 11.5 mph - N/A   Scattered Clouds
11:56 PM 69.8 °F 55.4 °F 60% 30.08 in 9.0 mi NNW 15.0 mph 20.7 mph N/A   Mostly Cloudy